Location: Malvern Link
(52.1333°N, 2.3000°W)
Time: 14:53:12
(UTC+00:00)

SO-50 - Pass Details

Date: 07 July 2022
Orbit: 585 x 698 km, 64.6° (Epoch: 11 August)

Event Time Altitude Azimuth Distance (km) Brightness Sun altitude
Rises 02:46:17 0° 290° (WNW) 3,037 ? -8.2°
Reaches altitude 10° 02:49:13 10° 308° (NW) 2,139 ? -8.0°
Maximum altitude 02:52:44 19° 355° (N) 1,611 ? -7.6°
Drops below altitude 10° 02:56:19 10° 41° (NE) 2,166 ? -7.3°
Sets 02:59:18 0° 59° (ENE) 3,088 ? -7.0°
